Location: Recife
(8.0585°S, 34.8848°W)
Time: 22:49:09
(UTC-03:00)

A-11 Canister half - Pass Details

Date: 16 April 2026
Orbit: 1523 x 1684 km, 47.3° (Epoch: 19 May)

Event Time Altitude Azimuth Distance (km) Brightness Sun altitude
Rises 20:42:06 0° 225° (SW) 4,740 11.9 -51.2°
Reaches altitude 10° 20:45:09 10° 227° (SW) 3,773 11.3 -51.9°
Enters shadow 20:47:44 21° 230° (SW) 2,987 10.6 -52.6°
